Gulfport, MS

5:58 AM CDT on May 25, 2017 (GMT -0500)
Gulfport-Biloxi Regional

Weather History for KGPT - May, 2013

Change the Weather History Date:

Saturday, May 11, 2013

  Actual Average Record
Temperature  
Mean Temperature 68 °F -  
Max Temperature 75 °F 82 °F 91 °F (2007)
Min Temperature 62 °F 63 °F 50 °F (1969)
Cooling Degree Days 2    
Growing Degree Days 18 (Base 50)    
Moisture  
Dew Point 64 °F    
Average Humidity 87    
Maximum Humidity 97    
Minimum Humidity 73    
Precipitation  
Precipitation 0.38 in - - ()
Sea Level Pressure  
Sea Level Pressure 30.01 in    
Wind  
Wind Speed 2 mph (SSE)    
Max Wind Speed 9 mph    
Max Gust Speed -    
Visibility 7 miles    
Events Rain    
Averages and records for this station are not official NWS values.
T = Trace of Precipitation, MM = Missing Value Source: NWS Daily Summary

Daily Weather History Graph

Daily Weather History Graph

Search for Another Location

Airport or City:

Trip Planner

Search our weather history database for the weather conditions in past years. The results will help you decide how hot, cold, wet, or windy it might be!

Date:

Astronomy

May. 11, 2013 Rise Set
Actual Time 6:04 AM CDT 7:41 PM CDT
Civil Twilight 5:38 AM CDT 8:07 PM CDT
Nautical Twilight 5:07 AM CDT 8:38 PM CDT
Astronomical Twilight 4:34 AM CDT 9:11 PM CDT
Moon 7:14 AM CDT (5/11) 9:18 PM CDT (5/11)
Length of Visible Light 14h 28m
Length of Day
13h 36m
Waxing Crescent, 3% of the Moon is Illuminated
May 11
Waxing Crescent
May 17
First Quarter
May 24
Full
May 31
Last Quarter
Jun 8
New

Hourly Weather History & Observations

Time (CDT) Temp. Dew Point Humidity Pressure Visibility Wind Dir Wind Speed Gust Speed Precip Events Conditions
12:06 AM 64.4 °F 62.6 °F 94% 30.01 in 4.0 mi Calm Calm - N/A   Scattered Clouds
12:53 AM 64.0 °F 62.1 °F 93% 30.02 in 4.0 mi Calm Calm - N/A   Scattered Clouds
1:35 AM 62.6 °F 60.8 °F 94% 30.00 in 2.0 mi Calm Calm - N/A   Partly Cloudy
1:53 AM 64.0 °F 62.1 °F 93% 30.00 in 4.0 mi Calm Calm - N/A   Partly Cloudy
2:53 AM 64.0 °F 62.1 °F 93% 29.99 in 6.0 mi Calm Calm - N/A   Mostly Cloudy
3:53 AM 63.0 °F 61.0 °F 93% 29.99 in 5.0 mi Calm Calm - N/A   Partly Cloudy
4:53 AM 63.0 °F 61.0 °F 93% 29.98 in 6.0 mi Calm Calm - N/A   Scattered Clouds
5:53 AM 64.0 °F 62.1 °F 93% 29.98 in 6.0 mi Calm Calm - 0.00 in   Mostly Cloudy
6:53 AM 64.0 °F 62.1 °F 93% 30.06 in 3.0 mi SW 5.8 mph - 0.04 in Rain Rain
7:53 AM 64.9 °F 63.0 °F 93% 30.05 in 1.8 mi South 3.5 mph - 0.24 in Rain Rain
8:01 AM 64.4 °F 62.6 °F 94% 30.04 in 2.5 mi ESE 3.5 mph - 0.01 in Rain Light Rain
8:38 AM 64.4 °F 62.6 °F 94% 29.98 in 5.0 mi ESE 9.2 mph - 0.10 in Rain Light Rain
8:53 AM 64.9 °F 64.0 °F 97% 30.00 in 9.0 mi SSE 5.8 mph - 0.10 in   Partly Cloudy
9:53 AM 68.0 °F 64.0 °F 87% 30.00 in 10.0 mi ESE 5.8 mph - N/A   Scattered Clouds
10:53 AM 70.0 °F 66.0 °F 87% 30.01 in 10.0 mi SE 9.2 mph - N/A   Scattered Clouds
11:00 AM 71.6 °F 64.4 °F 78% 30.02 in 10.0 mi SE 8.1 mph - N/A   Mostly Cloudy
11:48 AM 71.6 °F 64.4 °F 78% 30.03 in 10.0 mi SSE 4.6 mph - N/A   Overcast
11:53 AM 72.0 °F 64.9 °F 78% 30.03 in 10.0 mi SE 5.8 mph - N/A   Overcast
12:53 PM 73.0 °F 64.9 °F 76% 30.03 in 10.0 mi Variable 4.6 mph - N/A   Overcast
1:53 PM 73.0 °F 64.9 °F 76% 30.02 in 10.0 mi South 5.8 mph - N/A   Mostly Cloudy
2:53 PM 73.9 °F 64.9 °F 73% 29.99 in 10.0 mi Calm Calm - N/A   Partly Cloudy
3:53 PM 73.0 °F 66.0 °F 79% 29.97 in 10.0 mi SSE 8.1 mph - N/A   Mostly Cloudy
4:53 PM 73.0 °F 66.0 °F 79% 29.95 in 10.0 mi Calm Calm - N/A   Clear
5:53 PM 73.9 °F 66.9 °F 79% 29.98 in 10.0 mi Calm Calm - N/A   Partly Cloudy
6:53 PM 73.0 °F 66.9 °F 81% 29.98 in 10.0 mi Calm Calm - N/A   Clear
7:53 PM 71.1 °F 66.9 °F 87% 29.99 in 10.0 mi Calm Calm - N/A   Clear
8:53 PM 69.8 °F 66.2 °F 88% 30.01 in 9.0 mi Calm Calm - N/A   Clear
9:53 PM 68.0 °F 66.0 °F 93% 30.02 in 7.0 mi Calm Calm - N/A   Clear
10:53 PM 66.9 °F 64.0 °F 90% 30.03 in 8.0 mi Calm Calm - N/A   Clear
11:53 PM 66.0 °F 64.0 °F 93% 30.04 in 6.0 mi Calm Calm - N/A   Clear